Weather WX

World > North America > United States > Missouri

Henrietta, Missouri Regional Weather

Lat: 39.23N, Lon: 93.94W
Wx Zone: MOZ030
Warning FLW WEATHER ALERT - (More Info. Click Here) Warning
Feedback

Henrietta, MO Regional Weather

Expires:201906270200;;132236
ASUS43 KEAX 270110
RWREAX

WEATHER ROUNDUP FOR EASTERN KANSAS AND NORTHWEST MISSOURI
NATIONAL WEATHER SERVICE KANSAS CITY/PLEASANT HILL MO
800 PM CDT WED JUN 26 2019


MOZ001>008-011>017-020>025-030>033-038>040-044>046-053-054-270200-
...NORTHERN AND CENTRAL MISSOURI...
  
CITY           SKY/WX    TMP DP  RH WIND       PRES   REMARKS
ST. JOSEPH     CLEAR     81  68  64 MISG      30.03R                  
MOSBY          CLEAR     81  64  57 CALM      30.05R                  
WARRENSBURG    CLEAR     77  70  78 SE6       30.06S                  
WHITEMAN AFB   MOCLDY    77  72  84 S9        30.03S                  
CLINTON        CLEAR     79  73  83 S3        30.07S                  
SEDALIA        CLEAR     74  70  87 S10       30.09S                  
WARSAW         NOT AVBL                                               
CHILLICOTHE      N/A     80  71  74 CALM      30.07R                  
KIRKSVILLE     CLEAR     81  70  69 SW3       30.08R                  

$$


SKY/WX - Weather  TMP - Temperature  DP - Dew Point  RH - Relative Humidity
WIND - Wind Direction/Speed PRES - Barometric Pressure VSB - Visibility
WCI - Wind Chill Index E13G22 Wind - East Wind 13 mph/Gusts of 22 mph